Location: *
(42.5628°N, 2.3633°E)
Time: 03:15:36
(UTC+00:00)

Cosmos 2251 Rocket - Pass Details

Date: 30 March 2020
Orbit: 765 x 791 km, 74.0° (Epoch: 30 May)

Event Time Altitude Azimuth Distance (km) Brightness Sun altitude
Rises 20:34:46 0° 210° (SSW) 3,260 6.7 -25.0°
Reaches altitude 10° 20:37:11 10° 215° (SW) 2,339 6.0 -25.4°
Maximum altitude 20:42:25 57° 293° (WNW) 929 4.1 -26.2°
Drops below altitude 10° 20:47:43 10° 12° (NNE) 2,364 6.3 -27.0°
Sets 20:50:11 0° 17° (NNE) 3,298 7.0 -27.3°
